EW0412 Weather Reports


time (UTC)temp
C
wind
direction
speed
KPH
gust
KPH
rain 1hr
cm
rain 24hr
cm
rain mn
cm
humidity
%
barometer
mb
20260504215043 26 257 8.0 20.9 0.00 0.00 0.00 36 1012.5
20260504214037 26 180 6.4 19.3 0.00 0.00 0.00 36 1012.5
20260504213037 26 170 8.0 22.5 0.00 0.00 0.00 35 1012.6
20260504212039 26 196 9.7 22.5 0.00 0.00 0.00 35 1012.8
20260504211041 26 192 4.8 20.9 0.00 0.00 0.00 35 1012.9
20260504210039 26 161 6.4 16.1 0.00 0.00 0.00 34 1013.0
20260504205041 26 210 8.0 16.1 0.00 0.00 0.00 34 1013.0
20260504204058 26 248 4.8 19.3 0.00 0.00 0.00 37 1013.1
20260504203037 26 235 8.0 19.3 0.00 0.00 0.00 34 1013.3
20260504202039 26 187 4.8 17.7 0.00 0.00 0.00 34 1013.4
20260504201037 26 171 6.4 17.7 0.00 0.00 0.00 34 1013.5
20260504200036 26 216 8.0 24.1 0.00 0.00 0.00 35 1013.6
20260504195039 26 175 8.0 17.7 0.00 0.00 0.00 35 1013.7
20260504194040 26 217 6.4 17.7 0.00 0.00 0.00 37 1013.8
20260504193048 26 154 8.0 19.3 0.00 0.00 0.00 35 1013.8
20260504192036 26 167 8.0 19.3 0.00 0.00 0.00 36 1014.1
20260504191035 26 179 6.4 25.7 0.00 0.00 0.00 37 1014.2
20260504190036 26 239 9.7 25.7 0.00 0.00 0.00 36 1014.2
20260504185035 26 236 6.4 20.9 0.00 0.00 0.00 37 1014.3
20260504184041 25 152 6.4 25.7 0.00 0.00 0.00 37 1014.3
20260504183034 25 154 9.7 19.3 0.00 0.00 0.00 35 1014.4
20260504182037 25 252 9.7 17.7 0.00 0.00 0.00 40 1014.5
20260504181034 25 204 6.4 17.7 0.00 0.00 0.00 40 1014.7
20260504180114 25 239 8.0 17.7 0.00 0.00 0.00 40 1014.7
20260504175037 25 203 6.4 14.5 0.00 0.00 0.00 38 1014.8
20260504174048 25 159 6.4 14.5 0.00 0.00 0.00 37 1015.0
20260504173032 25 237 4.8 16.1 0.00 0.00 0.00 38 1015.2
20260504172118 24 237 8.0 16.1 0.00 0.00 0.00 43 1015.3
20260504171037 24 249 6.4 17.7 0.00 0.00 0.00 43 1015.4
20260504151038 21 249 8.0 17.7 0.00 0.00 0.00 54 1016.3
20260504141036 19 242 6.4 16.1 0.00 0.00 0.00 57 1016.3
20260504100215 9 231 1.6 6.4 0.00 0.00 0.00 88 1015.9
20260504081059 8 0.0 3.2 0.00 0.00 0.00 91 1016.0
20260504045031 10 258 0.0 3.2 0.00 0.00 0.00 87 1017.6
20260504044031 10 258 0.0 3.2 0.00 0.00 0.00 88 1017.7
20260504043035 10 0.0 0.0 0.00 0.00 0.00 87 1017.7
20260504042052 10 0.0 3.2 0.00 0.00 0.00 86 1017.8
20260504041040 10 258 1.6 3.2 0.00 0.00 0.00 87 1017.9
20260504040035 10 258 0.0 3.2 0.00 0.00 0.00 87 1017.9
20260504035036 10 0.0 0.0 0.00 0.00 0.00 87 1017.9
20260504034029 11 0.0 0.0 0.00 0.00 0.00 87 1017.9
20260504033032 11 0.0 0.0 0.00 0.00 0.00 86 1018.1
20260504032033 11 0.0 0.0 0.00 0.00 0.00 84 1018.1
20260504031033 11 0.0 0.0 0.00 0.00 0.00 84 1018.2
20260504030032 11 0.0 0.0 0.00 0.00 0.00 83 1018.2
20260504025039 11 0.0 0.0 0.00 0.00 0.00 83 1018.0
20260504024029 12 0.0 0.0 0.00 0.00 0.00 82 1018.1
20260504023032 12 0.0 0.0 0.00 0.00 0.00 80 1018.1
20260504022030 12 0.0 0.0 0.00 0.00 0.00 81 1018.0
20260504021113 12 0.0 0.0 0.00 0.00 0.00 79 1017.8
20260504020037 12 0.0 0.0 0.00 0.00 0.00 78 1017.6
20260504015031 13 0.0 0.0 0.00 0.00 0.00 78 1017.5
20260504014037 13 0.0 0.0 0.00 0.00 0.00 78 1017.4
20260504013027 13 0.0 0.0 0.00 0.00 0.00 75 1017.4
20260504012034 14 0.0 0.0 0.00 0.00 0.00 73 1017.3
20260504011037 15 0.0 0.0 0.00 0.00 0.00 69 1017.1
20260504010045 15 0.0 0.0 0.00 0.00 0.00 67 1017.0
20260504005042 16 0.0 0.0 0.00 0.00 0.00 64 1017.0
20260504004037 17 0.0 0.0 0.00 0.00 0.00 60 1016.8
20260504003040 18 0.0 0.0 0.00 0.00 0.00 54 1016.9
20260504002055 20 0.0 1.6 0.00 0.00 0.00 47 1016.9
20260504001043 21 258 0.0 3.2 0.00 0.00 0.00 40 1016.9
20260504000047 22 258 0.0 4.8 0.00 0.00 0.00 42 1016.9
20260503235043 22 258 1.6 6.4 0.00 0.00 0.00 35 1016.8
20260503234123 22 274 3.2 8.0 0.00 0.00 0.00 31 1016.9
20260503233058 22 255 3.2 11.3 0.00 0.00 0.00 32 1017.1
20260503232040 22 253 6.4 12.9 0.00 0.00 0.00 30 1017.0
20260503231058 23 284 6.4 11.3 0.00 0.00 0.00 30 1017.1
20260503230111 23 284 4.8 14.5 0.00 0.00 0.00 32 1017.2
20260503225042 23 298 4.8 14.5 0.00 0.00 0.00 31 1017.2
20260503224101 23 284 4.8 14.5 0.00 0.00 0.00 31 1017.3
20260503223038 23 260 1.6 12.9 0.00 0.00 0.00 29 1017.3
20260503222040 23 276 6.4 12.9 0.00 0.00 0.00 33 1017.3
20260503221043 23 304 3.2 11.3 0.00 0.00 0.00 32 1017.4
20260503220104 23 317 6.4 12.9 0.00 0.00 0.00 32 1017.4